DateTimeUTC,F1_A11,F1_S11,BsB_S11,BsG_S11,BsR_S11,BbsB_S11,BbsG_S11,BbsR_S11,BaB_A11,BaG_A11,BaR_A11,Tu_S11,T_S11,Uu_S11,U_S11,P_S11,T1_A11
2021-07-25T01:00:00Z,00000200,20000000,,,,,,,0000.05,0000.29,0000.26,18.6,25.4,09.5,06.3,0668.4,31.1
2021-07-25T01:01:00Z,00000200,20000000,,,,,,,-000.14,-000.42,-000.26,18.6,25.4,09.5,06.3,0668.4,31.1
2021-07-25T01:02:00Z,00000200,20000000,,,,,,,0000.31,0000.33,0000.10,18.6,25.4,09.5,06.3,0668.4,31.1
2021-07-25T01:03:00Z,00000200,60000000,,,,,,,-000.07,-000.41,0000.07,18.6,25.4,09.5,06.3,0668.4,31.1
2021-07-25T01:04:00Z,00000200,40000000,0000.52,0000.22,0000.22,0000.05,-000.00,0000.04,0000.18,-000.12,0000.24,18.7,25.2,09.3,06.3,0669.3,31.1
2021-07-25T01:05:00Z,00000200,00000000,0000.65,0000.36,0000.27,0000.40,-000.15,-000.01,-000.21,0000.31,-000.48,18.7,25.1,09.4,06.4,0669.3,31.1
2021-07-25T01:06:00Z,00000200,00000000,0000.49,0000.10,0000.21,0000.40,-000.02,0000.22,-000.05,-000.06,0000.33,18.7,25.1,09.5,06.5,0669.3,31.1
2021-07-25T01:07:00Z,00000200,00000000,0000.75,0000.30,0000.25,0000.69,-000.19,-000.27,0000.30,0000.37,0000.11,18.7,25.1,09.6,06.5,0669.4,31.1
2021-07-25T01:08:00Z,00000200,00000000,0000.33,0000.04,0000.03,0000.23,-000.08,-000.36,-000.19,-000.03,0000.26,18.7,25.1,09.7,06.6,0669.3,31.1
2021-07-25T01:09:00Z,00000200,00000000,-000.03,0000.24,0000.18,0000.37,-000.22,-000.11,0000.08,-000.09,-000.52,18.7,25.1,09.7,06.6,0669.3,31.1
2021-07-25T01:10:00Z,00000200,00000000,0001.55,0000.18,0000.24,0000.04,0000.19,-000.18,0000.29,0000.31,0000.13,18.7,25.1,09.7,06.6,0669.4,31.1
2021-07-25T01:11:00Z,00000200,00000000,0000.50,0000.25,0000.15,-000.13,-000.11,-000.10,-000.01,-000.48,0000.19,18.7,25.1,09.7,06.6,0669.3,31.1
2021-07-25T01:12:00Z,00000200,00000000,0000.95,0000.29,-000.14,0000.05,0000.03,-000.21,-000.10,0000.21,-000.39,18.7,25.0,09.7,06.6,0669.3,31.1
2021-07-25T01:13:00Z,00000200,00000000,0001.69,-000.15,-000.07,0000.35,-000.24,-000.36,-000.05,0000.25,0000.40,18.7,25.0,09.8,06.6,0669.4,31.1
2021-07-25T01:14:00Z,00000200,00000000,0000.76,0000.18,-000.32,0000.09,-000.10,-000.19,0000.33,-000.15,-000.07,18.7,25.0,09.7,06.6,0669.3,31.1
2021-07-25T01:15:00Z,00000200,00000000,0000.63,0000.01,0000.15,0000.05,-000.09,-000.16,-000.09,0000.07,0000.36,18.7,25.0,09.7,06.6,0669.4,31.1
2021-07-25T01:16:00Z,00000200,00000000,0000.63,0000.07,0000.16,0000.33,-000.13,0000.07,0000.25,0000.09,0000.06,18.8,25.1,09.6,06.6,0669.4,31.1
2021-07-25T01:17:00Z,00000200,00000000,0001.04,0000.44,0000.18,0001.11,0000.05,0000.15,-000.33,0000.09,0000.03,18.8,25.1,09.7,06.6,0669.4,31.1
2021-07-25T01:18:00Z,00000200,00000000,0000.69,0000.37,-000.19,0000.33,0000.15,-000.14,0000.52,0000.13,0000.03,18.9,25.1,09.7,06.6,0669.4,31.1
2021-07-25T01:19:00Z,00000200,00000000,0000.33,0000.05,0000.10,0000.36,-000.06,0000.02,-000.48,-000.12,-000.26,18.9,25.2,09.5,06.5,0669.4,31.1
2021-07-25T01:20:00Z,00000200,00000000,0000.73,0000.13,-000.32,0000.07,0000.14,-000.03,0000.06,-000.32,0000.06,19.0,25.2,09.5,06.5,0669.4,31.1
2021-07-25T01:21:00Z,00000200,00000000,0000.90,0000.60,-000.28,0000.14,-000.00,-000.34,0000.24,0000.49,-000.18,18.9,25.2,09.4,06.5,0669.4,31.1
2021-07-25T01:22:00Z,00000200,00000000,0000.13,0000.35,-000.43,0000.07,0000.16,-000.05,-000.33,-000.27,0000.33,18.9,25.1,09.5,06.5,0669.4,31.1
2021-07-25T01:23:00Z,00000200,00000000,0000.59,0000.20,-000.14,0000.19,-000.20,-000.34,-000.02,-000.04,-000.34,18.9,25.1,09.5,06.5,0669.4,31.1
2021-07-25T01:24:00Z,00000200,00000000,-000.05,0000.23,0000.45,0000.44,0000.02,0000.12,-000.18,0000.16,-000.03,18.9,25.1,09.5,06.5,0669.4,31.1
2021-07-25T01:25:00Z,00000200,00000000,0000.04,0000.47,0000.22,0000.65,0000.01,-000.29,-000.12,-000.42,-000.12,18.9,25.1,09.5,06.5,0669.4,31.1
2021-07-25T01:26:00Z,00000200,00000000,0000.61,-000.23,-000.10,0000.95,-000.02,-000.21,0000.11,0000.05,0000.08,18.8,25.1,09.4,06.4,0669.4,31.1
2021-07-25T01:27:00Z,00000200,00000000,-000.10,0000.82,-000.23,0000.27,-000.10,-000.11,-000.33,-000.20,-000.30,18.8,25.1,09.4,06.5,0669.4,31.1
2021-07-25T01:28:00Z,00000200,00000000,0000.65,-000.09,0000.34,0000.01,-000.21,-000.02,0000.06,-000.24,-000.07,18.8,25.1,09.2,06.3,0669.4,31.1
2021-07-25T01:29:00Z,00000200,00000000,0000.26,0000.15,-000.01,0000.25,0000.04,-000.22,0000.01,0000.05,0000.36,18.8,25.1,09.1,06.2,0669.5,31.1
2021-07-25T01:30:00Z,00000200,00000000,0000.68,0000.21,0000.32,-000.01,-000.01,0000.03,-000.13,0000.23,-000.20,18.8,25.1,09.1,06.2,0669.5,31.1
2021-07-25T01:31:00Z,00000200,00000000,0000.63,0000.29,-000.21,0000.68,-000.10,-000.24,-000.21,-000.25,0000.03,18.9,25.1,09.1,06.2,0669.5,31.1
2021-07-25T01:32:00Z,00000200,00000000,0000.18,0000.13,0000.00,0000.88,-000.26,-000.09,0000.04,-000.23,-000.34,18.9,25.1,09.0,06.1,0669.5,31.1
2021-07-25T01:33:00Z,00000200,00000000,0000.14,0000.17,0000.11,0000.39,-000.09,-000.02,-000.00,0000.19,0000.01,18.9,25.1,09.0,06.1,0669.5,31.1
2021-07-25T01:34:00Z,00000200,00000000,0000.32,0000.29,0000.19,-000.46,-000.15,0000.07,0000.16,-000.09,0000.13,18.9,25.1,08.9,06.1,0669.4,31.1
2021-07-25T01:35:00Z,00000200,00000000,0000.76,0000.03,-000.10,0000.70,-000.09,-000.16,0000.05,0000.49,0000.09,18.9,25.1,09.0,06.1,0669.4,31.1
2021-07-25T01:36:00Z,00000200,00000000,0000.28,0000.18,-000.28,0000.12,0000.06,-000.17,0000.01,-000.36,-000.16,18.9,25.1,09.0,06.1,0669.4,31.1
2021-07-25T01:37:00Z,00000200,00000000,0000.14,0000.35,-000.02,0000.45,0000.09,-000.09,0000.07,-000.16,-000.07,18.9,25.1,09.0,06.2,0669.4,31.1
2021-07-25T01:38:00Z,00000200,00000000,0000.70,0000.07,-000.01,0000.03,-000.08,0000.05,-000.35,-000.11,-000.23,18.9,25.1,09.0,06.1,0669.5,31.1
2021-07-25T01:39:00Z,00000200,00000000,-000.06,0000.13,0000.05,0000.15,-000.08,-000.05,0000.09,0000.20,0000.09,18.8,25.1,08.9,06.1,0669.5,31.1
2021-07-25T01:40:00Z,00000200,00000000,0000.19,0000.09,-000.01,0000.55,-000.02,0000.14,-000.30,-000.30,-000.38,18.8,25.1,08.9,06.1,0669.5,31.1
2021-07-25T01:41:00Z,00000200,00000000,0000.97,0000.15,0000.23,0000.56,-000.05,-000.15,-000.16,-000.03,0000.26,18.8,25.1,08.8,06.0,0669.5,31.1
2021-07-25T01:42:00Z,00000200,00000000,0000.22,0000.37,-000.09,-000.06,0000.20,0000.06,0000.39,-000.10,-000.07,18.8,25.1,08.9,06.0,0669.4,31.1
2021-07-25T01:43:00Z,00000200,00000000,0000.18,-000.10,-000.23,-000.17,-000.19,-000.09,-000.08,0000.32,-000.15,18.8,25.1,08.8,06.0,0669.4,31.1
2021-07-25T01:44:00Z,00000200,00000000,0000.96,0000.60,-000.12,0000.54,-000.07,-000.09,-000.11,0000.05,0000.27,18.8,25.1,08.9,06.0,0669.4,31.1
2021-07-25T01:45:00Z,00000200,00000000,0000.15,0000.55,-000.02,0000.09,-000.03,-000.34,0000.16,-000.04,0000.21,18.8,25.1,08.9,06.1,0669.4,31.1
2021-07-25T01:46:00Z,00000200,00000000,0001.36,0000.29,0000.01,0000.53,-000.06,0000.43,-000.19,-000.22,-000.10,18.8,25.1,08.7,06.0,0669.4,31.1
2021-07-25T01:47:00Z,00000200,00000000,0000.50,0000.30,-000.02,-000.26,0000.03,-000.53,0000.09,0000.16,-000.07,18.9,25.1,08.9,06.1,0669.4,31.1
2021-07-25T01:48:00Z,00000200,00000000,0001.05,0000.53,0000.33,0000.60,0000.19,0000.14,-000.03,-000.31,0000.05,18.9,25.1,08.9,06.1,0669.4,31.1
2021-07-25T01:49:00Z,00000200,00000000,0000.46,0000.29,0000.25,0000.20,0000.05,0000.16,0000.05,0000.35,-000.07,18.9,25.1,08.8,06.0,0669.4,31.1
2021-07-25T01:50:00Z,00000200,00000000,0000.67,-000.03,-000.38,0000.15,0000.10,0000.10,-000.23,-000.14,-000.25,18.9,25.1,08.8,06.0,0669.4,31.1
2021-07-25T01:51:00Z,00000200,00000000,-000.50,0000.23,0000.25,0000.33,0000.14,-000.08,0000.22,0000.18,0000.43,18.9,25.1,08.7,06.0,0669.4,31.1
2021-07-25T01:52:00Z,00000200,00000000,-000.02,-000.00,0000.07,0000.36,0000.06,-000.19,0000.09,-000.43,-000.60,18.9,25.1,08.7,06.0,0669.4,31.1
2021-07-25T01:53:00Z,00000200,00000000,0001.05,0000.13,0000.15,0000.39,-000.10,-000.35,-000.29,0000.24,0000.13,18.8,25.1,08.5,05.8,0669.4,31.1
2021-07-25T01:54:00Z,00000200,00000000,0000.24,0000.29,0000.08,0001.08,0000.08,0000.10,0000.02,-000.34,-000.17,18.8,25.1,08.6,05.9,0669.4,31.1
2021-07-25T01:55:00Z,00000200,00000000,0000.83,0000.15,-000.08,0000.08,0000.02,-000.44,-000.41,0000.03,0000.04,18.8,25.1,08.6,05.9,0669.4,31.1
2021-07-25T01:56:00Z,00000200,00000000,-000.24,0000.30,-000.01,-000.17,0000.06,-000.28,0000.02,-000.18,0000.13,18.8,25.0,08.6,05.9,0669.5,31.0
2021-07-25T01:57:00Z,00000200,40000000,,,,,,,0000.30,0000.31,0000.33,18.8,25.1,09.0,06.1,0669.5,31.1
2021-07-25T01:58:00Z,00000200,60000000,,,,,,,-000.62,-000.49,-000.38,18.5,25.2,08.7,05.8,0668.5,31.1
2021-07-25T01:59:00Z,00000200,20000000,,,,,,,-000.10,0000.12,-000.44,18.5,25.3,08.5,05.6,0668.5,31.1
